Home > Weather > Lugo > Past weeks

Flag for Spain Weather for the Past 2 Weeks in Lugo, Galicia, Spain

Now
45 °F

Rain showers. Broken clouds.


Feels Like: 36 °F
Forecast: 39 / 48 °F
Wind: 22 mph from Northwest

Location: Santiago / Labacolla

Current Time: Feb 6, 2016 at 5:22:10 PM

Latest Report: Feb 6, 2016 at 4:30 PM


Visibility: 2 mi

Pressure: 29.68 "Hg

Humidity: 93%

Dew point: 43 °F

Location of LugoLocation

Historic Weather in Lugo — Graph

°F

Lugo Temperature Yesterday

Maximum temperature yesterday: 55 °F (at 1:30 PM)
Minimum temperature yesterday: 39 °F (at 5:00 AM)
Average temperature yesterday: 47 °F

High & Low Weather Summary for the Past Weeks

 TemperatureHumidityPressure
High64 °F (Jan 24, 1:30 PM)100% (Jan 23, 7:00 AM)30.69 "Hg (Jan 23, 7:00 AM)
Low32 °F (Jan 29, 7:00 AM)47% (Feb 5, 1:30 PM)29.65 "Hg (Feb 6, 3:30 PM)
Average49 °F87%30.43 "Hg
* Reported Jan 22 4:00 PM — Feb 6 4:00 PM, Lugo, Weather by CustomWeather, © 2016

Note: Actual official high and low records may vary slightly from our data, if they occured in-between our weather recording intervals... More about our weather records

Advertising

Lugo Weather History for the Previous 24 Hours

 ConditionsComfort  
Time TempWeatherWind HumidityBarometerVisibility
4:00 PM
Sat, Feb 6
50 °FHeavy rain. Broken clouds.24 mph100%29.65 "Hg1 mi
3:30 PM50 °FRain. Broken clouds.26 mph94%29.65 "Hg2 mi
3:00 PM50 °FRain. Broken clouds.30 mph94%29.68 "Hg1 mi
2:30 PM50 °FRain. Broken clouds.26 mph88%29.71 "Hg2 mi
2:00 PM50 °FRain. Partly sunny.25 mph88%29.77 "Hg2 mi
1:30 PM52 °FLight rain. Partly sunny.23 mph82%29.77 "HgN/A
1:00 PM52 °FPartly sunny.24 mph77%29.80 "HgN/A
12:30 PM52 °FPartly sunny.23 mph82%29.83 "HgN/A
12:00 PM50 °FPartly sunny.22 mph82%29.86 "HgN/A
11:30 AM50 °FPartly sunny.21 mph82%29.89 "HgN/A
11:00 AM50 °FPartly sunny.22 mph82%29.89 "HgN/A
10:30 AM50 °FBroken clouds.18 mph76%29.89 "HgN/A
10:00 AM50 °FPartly sunny.20 mph82%29.92 "HgN/A
9:30 AM50 °FPartly sunny.18 mph82%29.95 "HgN/A
9:00 AM48 °FBroken clouds.17 mph87%29.95 "HgN/A
8:30 AM48 °FPartly cloudy.15 mph87%29.98 "HgN/A
8:00 AM48 °FPassing clouds.16 mph87%29.98 "HgN/A
7:30 AM48 °FPassing clouds.16 mph87%29.98 "HgN/A
7:00 AM48 °FPartly cloudy.15 mph82%30.01 "HgN/A
6:30 AM46 °FPassing clouds.16 mph87%30.01 "HgN/A
6:00 AM46 °FPartly cloudy.16 mph82%30.04 "HgN/A
5:00 AM46 °FPassing clouds.13 mph82%30.04 "HgN/A
4:30 AM46 °FPassing clouds.12 mph87%30.07 "HgN/A
4:00 AM46 °FPassing clouds.9 mph82%30.07 "HgN/A
3:00 AM41 °FPassing clouds.7 mph87%30.09 "HgN/A
2:30 AM43 °FPassing clouds.7 mph81%30.09 "HgN/A
1:30 AM46 °FPassing clouds.9 mph71%30.12 "HgN/A
1:00 AM43 °FPassing clouds.9 mph81%30.12 "HgN/A
12:30 AM45 °FPassing clouds.9 mph81%30.15 "HgN/A
12:00 AM45 °FPassing clouds.6 mph76%30.15 "HgN/A
11:30 PM
Fri, Feb 5
43 °FPassing clouds.7 mph81%30.18 "HgN/A
11:00 PM45 °FPassing clouds.7 mph81%30.18 "HgN/A
10:30 PM45 °FPassing clouds.8 mph76%30.18 "HgN/A
9:30 PM45 °FPassing clouds.7 mph81%30.18 "HgN/A
9:00 PM45 °FPassing clouds.7 mph81%30.18 "HgN/A
8:30 PM46 °FPassing clouds.3 mph82%30.18 "HgN/A
8:00 PM46 °FPassing clouds.3 mph87%30.21 "HgN/A
7:30 PM48 °FPassing clouds.6 mph87%30.21 "HgN/A
7:00 PM50 °FPassing clouds.7 mph76%30.21 "HgN/A
6:30 PM50 °FPassing clouds.8 mph67%30.21 "HgN/A
6:00 PM52 °FPassing clouds.7 mph62%30.21 "HgN/A
5:30 PM54 °FPassing clouds.9 mph54%30.21 "HgN/A
5:00 PM54 °FPassing clouds.10 mph54%30.21 "HgN/A
Weather by CustomWeather, © 2016

See weather overviewHow to use our weather pages